Location: Chillicothe
(39.7950°N, 93.5520°W)
Time: 15:48:32
(UTC-06:00)

BEESAT - Pass Details

Date: 17 November 2019
Orbit: 700 x 709 km, 98.6° (Epoch: 06 December)

Event Time Altitude Azimuth Distance (km) Brightness Sun altitude
Rises 04:28:40 0° 154° (SSE) 3,076 ? -29.2°
Reaches altitude 10° 04:30:56 10° 150° (SSE) 2,161 ? -28.7°
Maximum altitude 04:35:34 56° 72° (ENE) 837 ? -27.8°
Enters shadow 04:37:04 38° 17° (NNE) 1,061 ? -27.6°
